Ambler, AK

5:10 AM AKST on January 16, 2018 (GMT -0900)
Ambler

Weather History for PAFM - December, 2012

Change the Weather History Date:

Thursday, December 27, 2012

  Actual Average Record
Temperature  
Mean Temperature 12 °F -  
Max Temperature 17 °F 0 °F 37 °F (2001)
Min Temperature 6 °F -9 °F -48 °F (1987)
Degree Days  
Heating Degree Days 54    
Moisture  
Dew Point 1 °F    
Average Humidity 60    
Maximum Humidity 67    
Minimum Humidity 53    
Precipitation  
Precipitation 0.00 in - - ()
Sea Level Pressure  
Sea Level Pressure 29.52 in    
Wind  
Wind Speed 9 mph (NE)    
Max Wind Speed 12 mph    
Max Gust Speed 20 mph    
Visibility 10 miles    
Events      
Averages and records for this station are not official NWS values.
T = Trace of Precipitation, MM = Missing Value Source: NWS Daily Summary

Daily Weather History Graph

Daily Weather History Graph

Search for Another Location

Airport or City:

Trip Planner

Search our weather history database for the weather conditions in past years. The results will help you decide how hot, cold, wet, or windy it might be!

Date:

Astronomy

Dec. 27, 2012 Rise Set
Actual Time 12:44 PM AKST 2:21 PM AKST
Civil Twilight 10:39 AM AKST 4:26 PM AKST
Nautical Twilight 9:16 AM AKST 5:49 PM AKST
Astronomical Twilight 8:08 AM AKST 6:57 PM AKST
Moon 3:08 PM AKST (12/27) 11:12 AM AKST (12/27)
Length of Visible Light 5h 47m
Length of Day
1h 36m
Full, 100% of the Moon is Illuminated
Dec 27
Full
Dec 28
Full
Jan 4
Last Quarter
Jan 11
New
Jan 18
First Quarter

Hourly Weather History & Observations

Time (AKST) Temp. Windchill Dew Point Humidity Pressure Visibility Wind Dir Wind Speed Gust Speed Precip Events Conditions
12:16 AM 8.6 °F -4.7 °F -2.2 °F 62% 29.56 in 10.0 mi NNE 9.2 mph - N/A   Clear
12:36 AM 8.6 °F -5.5 °F -2.2 °F 62% 29.56 in 10.0 mi NNE 10.4 mph 17.3 mph N/A   Clear
12:56 AM 6.8 °F -7.8 °F -4.0 °F 61% 29.56 in 10.0 mi NNE 10.4 mph - N/A   Clear
1:16 AM 6.8 °F -6.9 °F -2.2 °F 67% 29.56 in 10.0 mi NE 9.2 mph - N/A   Clear
1:36 AM 6.8 °F -6.9 °F -2.2 °F 67% 29.55 in 10.0 mi NE 9.2 mph - N/A   Clear
1:56 AM 8.6 °F -3.7 °F -2.2 °F 62% 29.55 in 10.0 mi NE 8.1 mph - N/A   Clear
2:16 AM 8.6 °F -4.7 °F -2.2 °F 62% 29.55 in 10.0 mi NNE 9.2 mph - N/A   Clear
2:36 AM 8.6 °F -2.6 °F -2.2 °F 62% 29.56 in 10.0 mi NNE 6.9 mph - N/A   Clear
2:56 AM 8.6 °F -3.7 °F -0.4 °F 67% 29.56 in 10.0 mi NNE 8.1 mph - N/A   Clear
3:16 AM 8.6 °F -2.6 °F -2.2 °F 62% 29.55 in 10.0 mi NE 6.9 mph - N/A   Clear
3:36 AM 8.6 °F -5.5 °F -2.2 °F 62% 29.56 in 10.0 mi NNE 10.4 mph - N/A   Clear
3:56 AM 8.6 °F -3.7 °F -2.2 °F 62% 29.55 in 10.0 mi NE 8.1 mph - N/A   Clear
4:16 AM 8.6 °F -2.6 °F -0.4 °F 67% 29.54 in 10.0 mi NNE 6.9 mph - N/A   Clear
4:36 AM 8.6 °F -1.3 °F -0.4 °F 67% 29.54 in 10.0 mi NNE 5.8 mph - N/A   Clear
4:56 AM 8.6 °F -2.6 °F -0.4 °F 67% 29.54 in 10.0 mi NE 6.9 mph - N/A   Scattered Clouds
5:16 AM 10.4 °F -2.4 °F -0.4 °F 62% 29.53 in 10.0 mi NE 9.2 mph - N/A   Partly Cloudy
5:36 AM 8.6 °F -4.7 °F -2.2 °F 62% 29.53 in 10.0 mi NE 9.2 mph - N/A   Clear
5:56 AM 8.6 °F -1.3 °F -0.4 °F 67% 29.53 in 10.0 mi NE 5.8 mph - N/A   Mostly Cloudy
6:16 AM 8.6 °F -3.7 °F -0.4 °F 67% 29.53 in 10.0 mi NE 8.1 mph - N/A   Overcast
6:36 AM 10.4 °F -0.4 °F -0.4 °F 62% 29.53 in 10.0 mi NNE 6.9 mph - N/A   Mostly Cloudy
6:56 AM 10.4 °F -0.4 °F -0.4 °F 62% 29.53 in 10.0 mi NE 6.9 mph - N/A   Mostly Cloudy
7:36 AM 10.4 °F -1.5 °F -0.4 °F 62% 29.53 in 10.0 mi NE 8.1 mph - N/A   Scattered Clouds
7:56 AM 10.4 °F -2.4 °F -0.4 °F 62% 29.53 in 10.0 mi NNE 9.2 mph - N/A   Partly Cloudy
8:16 AM 10.4 °F -0.4 °F -0.4 °F 62% 29.54 in 10.0 mi NE 6.9 mph - N/A   Mostly Cloudy
8:36 AM 10.4 °F -1.5 °F -0.4 °F 62% 29.54 in 10.0 mi NNE 8.1 mph - N/A   Scattered Clouds
8:56 AM 12.2 °F 0.7 °F 1.4 °F 62% 29.54 in 10.0 mi North 8.1 mph - N/A   Partly Cloudy
9:16 AM 12.2 °F 0.7 °F -0.4 °F 57% 29.53 in 10.0 mi NE 8.1 mph 18.4 mph N/A   Mostly Cloudy
9:36 AM 12.2 °F -1.0 °F 1.4 °F 62% 29.53 in 10.0 mi NNE 10.4 mph 17.3 mph N/A   Scattered Clouds
10:16 AM 12.2 °F -0.2 °F 1.4 °F 62% 29.54 in 10.0 mi NNE 9.2 mph - N/A   Clear
10:36 AM 12.2 °F -1.0 °F 1.4 °F 62% 29.53 in 10.0 mi NNE 10.4 mph 17.3 mph N/A   Clear
10:56 AM 12.2 °F -1.0 °F 1.4 °F 62% 29.53 in 10.0 mi NNE 10.4 mph 16.1 mph N/A   Clear
11:16 AM 12.2 °F -1.0 °F 1.4 °F 62% 29.53 in 10.0 mi NE 10.4 mph 17.3 mph N/A   Scattered Clouds
11:36 AM 12.2 °F 0.7 °F 3.2 °F 67% 29.53 in 10.0 mi NE 8.1 mph - N/A   Partly Cloudy
11:56 AM 12.2 °F -0.2 °F 1.4 °F 62% 29.53 in 10.0 mi NNE 9.2 mph - N/A   Clear
12:16 PM 12.2 °F -1.0 °F 1.4 °F 62% 29.52 in 10.0 mi NNE 10.4 mph - N/A   Clear
12:36 PM 12.2 °F -0.2 °F 1.4 °F 62% 29.52 in 10.0 mi NE 9.2 mph - N/A   Clear
12:56 PM 14.0 °F 2.0 °F 1.4 °F 57% 29.52 in 10.0 mi NE 9.2 mph 17.3 mph N/A   Clear
1:16 PM 14.0 °F 2.0 °F 1.4 °F 57% 29.51 in 10.0 mi NE 9.2 mph 17.3 mph N/A   Clear
1:36 PM 14.0 °F 2.0 °F 1.4 °F 57% 29.51 in 10.0 mi NE 9.2 mph 16.1 mph N/A   Clear
1:56 PM 15.8 °F 4.2 °F 3.2 °F 58% 29.51 in 10.0 mi NE 9.2 mph 19.6 mph N/A   Clear
2:16 PM 14.0 °F 1.2 °F 1.4 °F 57% 29.51 in 10.0 mi NE 10.4 mph 18.4 mph N/A   Clear
2:36 PM 15.8 °F 4.2 °F 3.2 °F 58% 29.50 in 10.0 mi NE 9.2 mph 16.1 mph N/A   Clear
2:56 PM 14.0 °F 2.0 °F 1.4 °F 57% 29.50 in 10.0 mi NE 9.2 mph 16.1 mph N/A   Clear
3:16 PM 14.0 °F 2.0 °F 1.4 °F 57% 29.50 in 10.0 mi NE 9.2 mph - N/A   Clear
3:36 PM 14.0 °F 2.0 °F 1.4 °F 57% 29.50 in 10.0 mi NE 9.2 mph - N/A   Clear
3:56 PM 12.2 °F 1.7 °F 1.4 °F 62% 29.50 in 10.0 mi NE 6.9 mph - N/A   Clear
4:16 PM 12.2 °F 1.7 °F 1.4 °F 62% 29.49 in 10.0 mi NE 6.9 mph - N/A   Clear
4:36 PM 14.0 °F 1.2 °F 3.2 °F 62% 29.49 in 10.0 mi NNE 10.4 mph - N/A   Clear
4:56 PM 15.8 °F 3.4 °F 1.4 °F 53% 29.49 in 10.0 mi NNE 10.4 mph 17.3 mph N/A   Clear
5:16 PM 15.8 °F 5.1 °F 1.4 °F 53% 29.49 in 10.0 mi NE 8.1 mph - N/A   Clear
5:36 PM 15.8 °F 4.2 °F 1.4 °F 53% 29.49 in 10.0 mi ENE 9.2 mph 16.1 mph N/A   Clear
5:56 PM 15.8 °F 5.1 °F 3.2 °F 58% 29.49 in 10.0 mi NE 8.1 mph 16.1 mph N/A   Clear
6:16 PM 15.8 °F 7.2 °F 1.4 °F 53% 29.50 in 10.0 mi NE 5.8 mph - N/A   Clear
6:36 PM 15.8 °F 5.1 °F 1.4 °F 53% 29.50 in 10.0 mi NE 8.1 mph - N/A   Clear
6:56 PM 15.8 °F 3.4 °F 3.2 °F 58% 29.51 in 10.0 mi NNE 10.4 mph 17.3 mph N/A   Partly Cloudy
7:16 PM 15.8 °F 6.1 °F 1.4 °F 53% 29.51 in 10.0 mi NE 6.9 mph - N/A   Clear
7:36 PM 15.8 °F 6.1 °F 3.2 °F 58% 29.51 in 10.0 mi NE 6.9 mph - N/A   Clear
7:56 PM 15.8 °F 4.2 °F 3.2 °F 58% 29.52 in 10.0 mi NNE 9.2 mph - N/A   Clear
8:16 PM 17.6 °F 5.7 °F 3.2 °F 53% 29.51 in 10.0 mi NNE 10.4 mph 17.3 mph N/A   Partly Cloudy
8:36 PM 15.8 °F 5.1 °F 3.2 °F 58% 29.52 in 10.0 mi NNE 8.1 mph - N/A   Clear
8:56 PM 15.8 °F 5.1 °F 3.2 °F 58% 29.51 in 10.0 mi NNE 8.1 mph - N/A   Scattered Clouds
9:16 PM 15.8 °F 5.1 °F 3.2 °F 58% 29.51 in 10.0 mi NNE 8.1 mph - N/A   Mostly Cloudy
9:36 PM 15.8 °F 3.4 °F 3.2 °F 58% 29.51 in 10.0 mi NNE 10.4 mph - N/A   Overcast
9:56 PM 15.8 °F 4.2 °F 1.4 °F 53% 29.52 in 10.0 mi NE 9.2 mph - N/A   Overcast
10:16 PM 15.8 °F 6.1 °F 1.4 °F 53% 29.52 in 10.0 mi NE 6.9 mph - N/A   Mostly Cloudy
10:36 PM 15.8 °F 6.1 °F 3.2 °F 58% 29.52 in 10.0 mi NNE 6.9 mph - N/A   Mostly Cloudy
10:56 PM 15.8 °F 5.1 °F 1.4 °F 53% 29.53 in 10.0 mi NE 8.1 mph - N/A   Partly Cloudy
11:16 PM 15.8 °F 5.1 °F 3.2 °F 58% 29.53 in 10.0 mi NE 8.1 mph - N/A   Clear
11:36 PM 15.8 °F 6.1 °F 3.2 °F 58% 29.52 in 10.0 mi NE 6.9 mph - N/A   Clear
11:56 PM 15.8 °F 2.7 °F 3.2 °F 58% 29.52 in 10.0 mi NNE 11.5 mph - N/A   Scattered Clouds